This is the latest recevied weather packets stored in our database for station/object PY3MO-11. If no packets are shown the sender has not sent any weather packets the latest 10 day(s).
| Time | Temp. | Humidity | Pressure | Rain* | Wind** | Luminosity | Snow |
|---|---|---|---|---|---|---|---|
| 1778098138 | 26.11° C | 54% | 1016.8 hPa | 0 mm | - | - | - |
| 1778097838 | 26.67° C | 53% | 1016.9 hPa | 0 mm | - | - | - |
| 1778097538 | 27.22° C | 53% | 1016.7 hPa | 0 mm | - | - | - |
| 1778097237 | 27.78° C | 49% | 1016.9 hPa | 0 mm | - | - | - |
| 1778096937 | 27.22° C | 52% | 1016.8 hPa | 0 mm | - | - | - |
| 1778096637 | 27.22° C | 52% | 1016.8 hPa | 0 mm | - | - | - |
| 1778096337 | 27.22° C | 52% | 1016.7 hPa | 0 mm | - | - | - |
| 1778096037 | 27.78° C | 47% | 1016.7 hPa | 0 mm | - | - | - |
| 1778095738 | 27.78° C | 46% | 1017 hPa | 0 mm | - | - | - |
| 1778095438 | 27.78° C | 46% | 1016.9 hPa | 0 mm | - | - | - |
| 1778095138 | 27.78° C | 47% | 1016.7 hPa | 0 mm | - | - | - |
| 1778094838 | 28.33° C | 47% | 1016.8 hPa | 0 mm | - | - | - |
| 1778094538 | 28.33° C | 48% | 1016.7 hPa | 0 mm | - | - | - |
| 1778094238 | 27.78° C | 48% | 1016.7 hPa | 0 mm | - | - | - |
| 1778093938 | 27.78° C | 47% | 1016.8 hPa | 0 mm | - | - | - |
| 1778093637 | 28.33° C | 46% | 1016.7 hPa | 0 mm | - | - | - |
| 1778093337 | 28.33° C | 46% | 1016.9 hPa | 0 mm | - | - | - |
| 1778093037 | 28.33° C | 45% | 1016.7 hPa | 0 mm | - | - | - |
| 1778092737 | 28.33° C | 44% | 1016.8 hPa | 0 mm | - | - | - |
| 1778092437 | 28.33° C | 44% | 1016.8 hPa | 0 mm | - | - | - |
| 1778092139 | 28.33° C | 44% | 1017 hPa | 0 mm | - | - | - |
| 1778091838 | 28.33° C | 45% | 1016.8 hPa | 0 mm | - | - | - |
| 1778091538 | 28.33° C | 45% | 1017 hPa | 0 mm | - | - | - |
| 1778091238 | 28.89° C | 45% | 1016.8 hPa | 0 mm | - | - | - |
| 1778090938 | 28.89° C | 44% | 1017.1 hPa | 0 mm | - | - | - |
* Rain latest hour (hover to see other rain measurements)
** Current wind speed in m/s (hover to see current wind gust speed)